2014-11-06 00:03:20 r, 15.35m,0000000064Hz,0000007192c,0000000.016s, 019.3C,00002195
2014-11-06 00:13:20 r, 15.35m,0000000063Hz,0000007210c,0000000.016s, 019.3C,00002195
2014-11-06 00:23:20 r, 15.33m,0000000065Hz,0000007043c,0000000.015s, 019.3C,00002195
2014-11-06 00:33:20 r, 15.35m,0000000065Hz,0000007178c,0000000.016s, 019.3C,00002195
2014-11-06 00:43:20 r, 15.34m,0000000065Hz,0000007116c,0000000.015s, 019.6C,00002195
2014-11-06 00:53:20 r, 15.32m,0000000066Hz,0000006980c,0000000.015s, 019.6C,00002195
2014-11-06 01:03:20 r, 15.36m,0000000064Hz,0000007289c,0000000.016s, 019.6C,00002195
2014-11-06 01:13:20 r, 15.30m,0000000068Hz,0000006857c,0000000.015s, 019.6C,00002195
2014-11-06 01:23:20 r, 15.20m,0000000072Hz,0000006281c,0000000.014s, 019.3C,00002195
2014-11-06 01:33:20 r, 15.24m,0000000072Hz,0000006475c,0000000.014s, 019.3C,00002195
2014-11-06 01:43:20 r, 15.22m,0000000072Hz,0000006369c,0000000.014s, 019.3C,00002195
2014-11-06 01:53:20 r, 15.22m,0000000071Hz,0000006392c,0000000.014s, 019.3C,00002195
2014-11-06 02:03:20 r, 15.22m,0000000072Hz,0000006383c,0000000.014s, 019.3C,00002195
2014-11-06 02:13:20 r, 15.24m,0000000071Hz,0000006475c,0000000.014s, 019.6C,00002195
2014-11-06 02:23:20 r, 15.45m,0000000059Hz,0000007860c,0000000.017s, 019.6C,00002195
2014-11-06 02:33:20 r, 15.57m,0000000051Hz,0000008894c,0000000.019s, 019.9C,00002195
2014-11-06 02:43:20 r, 15.38m,0000000063Hz,0000007406c,0000000.016s, 019.9C,00002195
2014-11-06 02:53:20 r, 15.36m,0000000063Hz,0000007295c,0000000.016s, 019.9C,00002195
2014-11-06 03:03:20 r, 15.35m,0000000065Hz,0000007163c,0000000.016s, 019.9C,00002195
2014-11-06 03:13:20 r, 15.42m,0000000060Hz,0000007693c,0000000.017s, 019.9C,00002195
2014-11-06 03:23:20 r, 15.44m,0000000059Hz,0000007831c,0000000.017s, 019.9C,00002195
2014-11-06 03:33:20 r, 15.42m,0000000060Hz,0000007682c,0000000.017s, 019.9C,00002195
2014-11-06 03:43:20 r, 15.19m,0000000073Hz,0000006216c,0000000.013s, 019.9C,00002195
2014-11-06 03:53:20 r, 15.14m,0000000077Hz,0000005940c,0000000.013s, 019.6C,00002195
2014-11-06 04:03:20 r, 15.44m,0000000059Hz,0000007820c,0000000.017s, 019.6C,00002195
2014-11-06 04:13:20 r, 15.62m,0000000050Hz,0000009226c,0000000.020s, 019.6C,00002195
2014-11-06 04:23:20 r, 15.72m,0000000046Hz,0000010129c,0000000.022s, 019.9C,00002195
2014-11-06 04:33:20 r, 16.14m,0000000031Hz,0000014786c,0000000.032s, 019.9C,00002195
2014-11-06 04:43:20 r, 16.50m,0000000022Hz,0000020850c,0000000.045s, 019.6C,00002195
2014-11-06 04:53:20 r, 17.14m,0000000012Hz,0000037583c,0000000.082s, 019.6C,00002195
2014-11-06 05:03:20 r, 16.67m,0000000019Hz,0000024207c,0000000.053s, 019.3C,00002195
2014-11-06 05:13:20 r, 15.49m,0000000057Hz,0000008180c,0000000.018s, 019.3C,00002195
2014-11-06 05:23:20 r, 15.85m,0000000041Hz,0000011393c,0000000.025s, 019.3C,00002195
2014-11-06 05:33:20 r, 15.68m,0000000047Hz,0000009770c,0000000.021s, 019.3C,00002195
2014-11-06 05:43:20 r, 15.42m,0000000060Hz,0000007653c,0000000.017s, 019.3C,00002195
2014-11-06 05:53:20 r, 15.45m,0000000057Hz,0000007902c,0000000.017s, 019.6C,00002195
2014-11-06 06:03:20 r, 15.41m,0000000061Hz,0000007553c,0000000.016s, 019.6C,00002195
2014-11-06 06:13:20 r, 15.42m,0000000060Hz,0000007656c,0000000.017s, 019.6C,00002195
2014-11-06 06:23:20 r, 15.44m,0000000058Hz,0000007834c,0000000.017s, 019.6C,00002195
2014-11-06 06:33:20 r, 15.87m,0000000039Hz,0000011558c,0000000.025s, 019.6C,00002195
2014-11-06 06:43:20 r, 14.52m,0000000138Hz,0000000000c,0000000.000s, 019.6C,00002195
2014-11-06 06:53:20 r, 13.05m,0000000539Hz,0000000000c,0000000.000s, 019.6C,00002195
2014-11-06 07:03:20 r, 10.68m,0000004763Hz,0000000000c,0000000.000s, 019.9C,00002195
2014-11-06 07:13:20 r, 09.16m,0000019283Hz,0000000000c,0000000.000s, 019.6C,00002195
2014-11-06 07:23:20 r, 08.14m,0000049254Hz,0000000000c,0000000.000s, 019.6C,00002195
2014-11-06 07:33:20 r, 07.17m,0000120378Hz,0000000000c,0000000.000s, 019.9C,00002195
2014-11-06 07:43:20 r, 06.18m,0000301618Hz,0000000000c,0000000.000s, 019.9C,00002195
2014-11-06 07:53:20 r, 06.67m,0000191119Hz,0000000000c,0000000.000s, 019.9C,00002195
2014-11-06 08:03:20 r, 06.04m,0000341544Hz,0000000000c,0000000.000s, 019.6C,00002195
2014-11-06 08:13:20 r, 00.00m,0000563131Hz,0000000000c,0000000.000s, 019.9C,00002195
2014-11-06 08:23:20 r, 00.00m,0000563166Hz,0000000000c,0000000.000s, 019.9C,00002195
2014-11-06 08:33:20 r, 00.00m,0000563173Hz,0000000000c,0000000.000s, 019.9C,00002195
2014-11-06 08:43:20 r, 00.00m,0000563214Hz,0000000000c,0000000.000s, 019.9C,00002195
2014-11-06 08:53:20 r, 00.00m,0000563267Hz,0000000000c,0000000.000s, 020.3C,00002195
2014-11-06 09:03:20 r, 00.00m,0000563227Hz,0000000000c,0000000.000s, 020.3C,00002195
2014-11-06 09:13:20 r, 00.00m,0000563269Hz,0000000000c,0000000.000s, 020.3C,00002195
2014-11-06 09:23:20 r, 00.00m,0000563255Hz,0000000000c,0000000.000s, 020.3C,00002195
2014-11-06 09:33:20 r, 00.00m,0000563334Hz,0000000000c,0000000.000s, 020.6C,00002195
2014-11-06 09:43:20 r, 00.00m,0000563356Hz,0000000000c,0000000.000s, 020.9C,00002195
2014-11-06 09:53:20 r, 00.00m,0000563372Hz,0000000000c,0000000.000s, 021.2C,00002195
2014-11-06 10:03:20 r, 00.00m,0000563454Hz,0000000000c,0000000.000s, 021.5C,00002195
2014-11-06 10:13:20 r, 00.00m,0000563510Hz,0000000000c,0000000.000s, 021.5C,00002195
2014-11-06 10:23:20 r, 00.00m,0000563415Hz,0000000000c,0000000.000s, 021.9C,00002195
2014-11-06 10:33:20 r, 00.00m,0000563308Hz,0000000000c,0000000.000s, 021.9C,00002195
2014-11-06 10:43:20 r, 00.00m,0000563518Hz,0000000000c,0000000.000s, 022.5C,00002195
2014-11-06 10:53:20 r, 00.00m,0000563698Hz,0000000000c,0000000.000s, 023.2C,00002195
2014-11-06 11:03:20 r, 00.00m,0000563785Hz,0000000000c,0000000.000s, 023.8C,00002195
2014-11-06 11:13:20 r, 00.00m,0000563776Hz,0000000000c,0000000.000s, 024.1C,00002195
2014-11-06 11:23:20 r, 00.00m,0000563751Hz,0000000000c,0000000.000s, 024.8C,00002195
2014-11-06 11:33:20 r, 00.00m,0000563822Hz,0000000000c,0000000.000s, 024.8C,00002195
2014-11-06 11:43:20 r, 00.00m,0000563845Hz,0000000000c,0000000.000s, 024.8C,00002195
2014-11-06 11:53:20 r, 00.00m,0000563866Hz,0000000000c,0000000.000s, 025.4C,00002195
2014-11-06 12:03:20 r, 00.00m,0000563968Hz,0000000000c,0000000.000s, 025.1C,00002195
2014-11-06 12:13:20 r, 00.00m,0000564002Hz,0000000000c,0000000.000s, 025.1C,00002195
2014-11-06 12:23:20 r, 00.00m,0000564016Hz,0000000000c,0000000.000s, 025.7C,00002195
2014-11-06 12:33:20 r, 00.00m,0000564018Hz,0000000000c,0000000.000s, 026.4C,00002195
2014-11-06 12:43:20 r, 00.00m,0000564012Hz,0000000000c,0000000.000s, 026.4C,00002195
2014-11-06 12:53:20 r, 00.00m,0000563821Hz,0000000000c,0000000.000s, 025.4C,00002195
2014-11-06 13:03:20 r, 00.00m,0000563951Hz,0000000000c,0000000.000s, 025.7C,00002195
2014-11-06 13:13:20 r, 00.00m,0000563811Hz,0000000000c,0000000.000s, 024.8C,00002195
2014-11-06 13:23:20 r, 00.00m,0000563714Hz,0000000000c,0000000.000s, 024.4C,00002195
2014-11-06 13:33:20 r, 00.00m,0000563797Hz,0000000000c,0000000.000s, 025.1C,00002195
2014-11-06 13:43:20 r, 00.00m,0000563822Hz,0000000000c,0000000.000s, 025.4C,00002195
2014-11-06 13:53:20 r, 00.00m,0000563712Hz,0000000000c,0000000.000s, 024.4C,00002195
2014-11-06 14:03:20 r, 00.00m,0000563644Hz,0000000000c,0000000.000s, 023.5C,00002195
2014-11-06 14:13:20 r, 00.00m,0000563613Hz,0000000000c,0000000.000s, 023.8C,00002195
2014-11-06 14:23:20 r, 00.00m,0000563625Hz,0000000000c,0000000.000s, 024.1C,00002195
2014-11-06 14:33:20 r, 00.00m,0000563637Hz,0000000000c,0000000.000s, 024.1C,00002195
2014-11-06 14:43:20 r, 00.00m,0000563618Hz,0000000000c,0000000.000s, 023.8C,00002195
2014-11-06 14:53:20 r, 00.00m,0000563605Hz,0000000000c,0000000.000s, 023.2C,00002195
2014-11-06 15:03:20 r, 00.00m,0000563426Hz,0000000000c,0000000.000s, 022.8C,00002195
2014-11-06 15:13:20 r, 00.00m,0000563356Hz,0000000000c,0000000.000s, 021.9C,00002195
2014-11-06 15:23:20 r, 00.00m,0000563220Hz,0000000000c,0000000.000s, 021.5C,00002195
2014-11-06 15:33:20 r, 00.00m,0000563189Hz,0000000000c,0000000.000s, 020.9C,00002195
2014-11-06 15:43:20 r, 00.00m,0000563139Hz,0000000000c,0000000.000s, 020.6C,00002195
2014-11-06 15:53:20 r, 00.00m,0000563141Hz,0000000000c,0000000.000s, 020.3C,00002195
2014-11-06 16:03:20 r, 00.00m,0000563053Hz,0000000000c,0000000.000s, 020.3C,00002195
2014-11-06 16:13:20 r, 00.00m,0000546098Hz,0000000000c,0000000.000s, 019.9C,00002195
2014-11-06 16:23:20 r, 00.00m,0000427521Hz,0000000000c,0000000.000s, 019.9C,00002195
2014-11-06 16:33:20 r, 06.18m,0000299094Hz,0000000000c,0000000.000s, 019.3C,00002195
2014-11-06 16:43:20 r, 06.75m,0000177832Hz,0000000000c,0000000.000s, 019.0C,00002195
2014-11-06 16:53:20 r, 07.45m,0000092856Hz,0000000000c,0000000.000s, 018.3C,00002195
2014-11-06 17:03:20 r, 08.28m,0000043690Hz,0000000000c,0000000.000s, 018.3C,00002195
2014-11-06 17:13:20 r, 09.66m,0000012197Hz,0000000000c,0000000.000s, 018.0C,00002195
2014-11-06 17:23:20 r, 11.51m,0000002229Hz,0000000000c,0000000.000s, 018.0C,00002195
2014-11-06 17:33:20 r, 13.47m,0000000364Hz,0000000000c,0000000.000s, 017.7C,00002195
2014-11-06 17:43:20 r, 15.42m,0000000061Hz,0000007621c,0000000.017s, 017.7C,00002195
2014-11-06 17:53:20 r, 16.72m,0000000019Hz,0000025311c,0000000.055s, 017.7C,00002195
2014-11-06 18:03:20 r, 17.36m,0000000010Hz,0000045961c,0000000.100s, 017.7C,00002195
2014-11-06 18:13:20 r, 17.55m,0000000008Hz,0000054564c,0000000.118s, 017.7C,00002195
2014-11-06 18:23:20 r, 17.39m,0000000010Hz,0000047132c,0000000.102s, 017.4C,00002195
2014-11-06 18:33:20 r, 17.27m,0000000011Hz,0000042278c,0000000.092s, 017.4C,00002195
2014-11-06 18:43:20 r, 17.17m,0000000012Hz,0000038547c,0000000.084s, 017.4C,00002195
2014-11-06 18:53:20 r, 16.99m,0000000014Hz,0000032566c,0000000.071s, 017.0C,00002195
2014-11-06 19:03:20 r, 16.96m,0000000014Hz,0000031592c,0000000.069s, 017.0C,00002195
2014-11-06 19:13:20 r, 17.17m,0000000012Hz,0000038403c,0000000.083s, 017.0C,00002195
2014-11-06 19:23:20 r, 17.25m,0000000011Hz,0000041455c,0000000.090s, 016.7C,00002195
2014-11-06 19:33:20 r, 17.14m,0000000012Hz,0000037393c,0000000.081s, 016.7C,00002195
2014-11-06 19:43:20 r, 17.47m,0000000009Hz,0000050922c,0000000.111s, 016.4C,00002195
2014-11-06 19:53:20 r, 17.36m,0000000010Hz,0000045754c,0000000.099s, 016.1C,00002195
2014-11-06 20:03:20 r, 16.96m,0000000015Hz,0000031636c,0000000.069s, 016.1C,00002195
2014-11-06 20:13:20 r, 16.70m,0000000018Hz,0000025058c,0000000.054s, 016.1C,00002195
2014-11-06 20:23:20 r, 16.14m,0000000031Hz,0000014881c,0000000.032s, 016.1C,00002195
2014-11-06 20:33:20 r, 16.13m,0000000031Hz,0000014715c,0000000.032s, 016.1C,00002195
2014-11-06 20:43:20 r, 16.14m,0000000031Hz,0000014789c,0000000.032s, 016.4C,00002195
2014-11-06 20:53:20 r, 16.02m,0000000035Hz,0000013276c,0000000.029s, 016.4C,00002195
2014-11-06 21:03:20 r, 16.17m,0000000030Hz,0000015279c,0000000.033s, 016.4C,00002195
2014-11-06 21:13:20 r, 16.35m,0000000025Hz,0000018126c,0000000.039s, 016.4C,00002195
2014-11-06 21:23:20 r, 15.89m,0000000038Hz,0000011879c,0000000.026s, 016.4C,00002195
2014-11-06 21:33:20 r, 15.98m,0000000036Hz,0000012807c,0000000.028s, 016.4C,00002195
2014-11-06 21:43:20 r, 15.75m,0000000044Hz,0000010451c,0000000.023s, 016.4C,00002195
2014-11-06 21:53:20 r, 15.70m,0000000046Hz,0000009945c,0000000.022s, 016.4C,00002195
2014-11-06 22:03:20 r, 15.75m,0000000044Hz,0000010416c,0000000.023s, 016.7C,00002195
2014-11-06 22:13:20 r, 15.67m,0000000048Hz,0000009678c,0000000.021s, 016.7C,00002195
2014-11-06 22:23:20 r, 15.91m,0000000038Hz,0000011989c,0000000.026s, 017.0C,00002195
2014-11-06 22:33:20 r, 16.03m,0000000034Hz,0000013494c,0000000.029s, 016.7C,00002195
2014-11-06 22:43:20 r, 15.79m,0000000042Hz,0000010835c,0000000.024s, 016.7C,00002195
2014-11-06 22:53:20 r, 15.77m,0000000044Hz,0000010615c,0000000.023s, 016.7C,00002195
2014-11-06 23:03:20 r, 15.74m,0000000045Hz,0000010346c,0000000.022s, 016.4C,00002195
2014-11-06 23:13:20 r, 15.30m,0000000067Hz,0000006849c,0000000.015s, 016.4C,00002195
2014-11-06 23:23:20 r, 15.41m,0000000061Hz,0000007588c,0000000.016s, 016.4C,00002195
2014-11-06 23:33:20 r, 15.29m,0000000068Hz,0000006804c,0000000.015s, 016.7C,00002195
2014-11-06 23:43:20 r, 15.53m,0000000054Hz,0000008535c,0000000.019s, 017.0C,00002195
2014-11-06 23:53:20 r, 15.42m,0000000060Hz,0000007633c,0000000.017s, 017.4C,00002195
